Regional Weather Roundup
Issued by NWS Burlington, VT

Home | Current Version | Previous Version | Text Only | Print | Product List | Glossary On
Versions: 1 2 3 4 5 6 7 8 9 10 11 12 13 14 15 16 17 18 19 20 21 22 23 24 25 26 27 28 29 30 31 32 33 34 35 36 37 38 39 40 41 42 43 44 45 46 47 48 49 50
000
ASUS41 KBTV 210430
RWRBTV
VERMONT REGIONAL WEATHER ROUNDUP
NATIONAL WEATHER SERVICE BURLINGTON VT
1200 AM EDT SAT APR 21 2018

NOTE: "FAIR" INDICATES FEW OR NO CLOUDS BELOW 12,000 FEET WITH NO
SIGNIFICANT WEATHER AND/OR OBSTRUCTIONS TO VISIBILITY.

* THESE REPORTS ARE NOT UNDER NWS QUALITY CONTROL AND/OR DO NOT
  REPORT WEATHER SUCH AS PRECIPITATION AND FOG.

VTZ001>019-210500-
_____VERMONT_____


CITY           SKY/WX    TMP DP  RH WIND       PRES   REMARKS
BURLINGTON     CLOUDY    41  27  57 N3        30.27S
MONTPELIER     CLOUDY    35  29  78 W3        30.27F
MORRISVILLE    CLOUDY    34  29  82 CALM      30.26R
ST. JOHNSBURY*   N/A     37  28  70 MISG      30.22S
LYNDONVILLE*   CLOUDY    35  26  68 NW5       30.23S WCI  31
MIDDLEBURY*    CLOUDY    35  30  81 CALM      30.27S
RUTLAND*       CLOUDY    34  28  79 SE5       30.28S WCI  30
SPRINGFIELD    CLOUDY    38  26  62 W3        30.27S
HIGHGATE*      CLOUDY    40  26  59 N3        30.27F
NEWPORT*       CLOUDY    36  26  67 NW7       30.23S WCI  30
BENNINGTON     MOCLDY    35  24  64 CALM      30.30S
ISLAND POND*     N/A     36 N/A N/A NW3         N/A
GALLUP MILLS*    N/A     30 N/A N/A MISG        N/A
UNION VILLAGE*   N/A     36 N/A N/A MISG        N/A
MT. MANSFIELD*   N/A     25 N/A N/A CALM        N/A

_____LAKE CHAMPLAIN_____


CITY           SKY/WX    TMP DP  RH WIND       PRES   REMARKS
BURTON ISLAND*   N/A     39  32  75 N1          N/A
COLCHESTER RF*   N/A     41  28  60 N10         N/A

$$

NYZ007-026>031-035-052-083-087-210500-
_____NORTHERN NEW YORK_____


CITY           SKY/WX    TMP DP  RH WIND       PRES   REMARKS
PLATTSBURGH    CLOUDY    42  24  49 CALM      30.28R
SARANAC LAKE   MOCLDY    30  27  88 CALM      30.25S
MASSENA        FAIR      29  26  89 W5        30.33R WCI  24
OGDENSBURG*    FAIR      32  28  85 CALM      30.34R
POTSDAM*       MOCLDY    32  28  86 SW6       30.32R WCI  26
STARK FALLS*     N/A     32 N/A N/A W5          N/A  WCI  27
WATERTOWN      FAIR      33  30  88 S5        30.35S WCI  29
FT DRUM        FAIR      34  29  79 SW8       30.32S WCI  28
ALBANY         FAIR      37  24  59 NW12      30.34S WCI  29
GLENS FALLS    FAIR      32  25  75 W6        30.31S WCI  26

$$
NHZ002-005-011-210500-
_____NEW HAMPSHIRE_____


CITY           SKY/WX    TMP DP  RH WIND       PRES   REMARKS
LEBANON        CLOUDY    37  27  67 CALM      30.25S
KEENE          CLOUDY    39  26  59 VRB3      30.28S
MT WASHINGTON  SNOW      14  14 100 NW48G64     N/A  VSB 0   WCI -11
PLYMOUTH       CLOUDY    38  29  70 W6        30.24S
WHITEFIELD     CLOUDY    37  28  70 CALM      30.21F

$$

_____REGIONAL QUEBEC LOCATIONS_____


CITY           SKY/WX    TMP DP  RH WIND       PRES   REMARKS
MONTREAL       MOCLDY    43  25  49 N7        30.28S
QUEBEC CITY    MOCLDY    39  27  60 W5        30.19S
SHERBROOKE     MOCLDY    36  27  69 MISG      30.20S

_____REGIONAL ONTARIO LOCATIONS_____


CITY           SKY/WX    TMP DP  RH WIND       PRES   REMARKS
OTTAWA         CLEAR     36  19  51 NW7       30.32S WCI  30

______KEY______
VSB  - VISIBILITY IN MILES
WCI  - WIND CHILL INDEX
HX   - HEAT INDEX
$$
NNNN



USA.gov is the U.S. government's official web portal to all federal, state and local government web resources and services.